Weather History for KVNY - September, 2013

Change the Weather History Date:

Monday, September 23, 2013

  Actual Average Record
Temperature  
Mean Temperature 77 °F -  
Max Temperature 95 °F 84 °F 106 °F (2002)
Min Temperature 59 °F 58 °F 51 °F (2007)
Cooling Degree Days 12    
Growing Degree Days 27 (Base 50)    
Moisture  
Dew Point 40 °F    
Average Humidity 33    
Maximum Humidity 70    
Minimum Humidity 10    
Precipitation  
Precipitation 0.00 in - - ()
Sea Level Pressure  
Sea Level Pressure 29.83 in    
Wind  
Wind Speed 3 mph (WSW)    
Max Wind Speed 13 mph    
Max Gust Speed -    
Visibility 10 miles    
Events      
Averages and records for this station are not official NWS values.
T = Trace of Precipitation, MM = Missing Value Source: NWS Daily Summary

Daily Weather History Graph

Daily Weather History Graph

Search for Another Location

Airport or City:

Trip Planner

Search our weather history database for the weather conditions in past years. The results will help you decide how hot, cold, wet, or windy it might be!

Date:

Astronomy

Sep. 23, 2013 Rise Set
Actual Time 6:42 AM PDT 6:48 PM PDT
Civil Twilight 6:17 AM PDT 7:13 PM PDT
Nautical Twilight 5:48 AM PDT 7:42 PM PDT
Astronomical Twilight 5:19 AM PDT 8:12 PM PDT
Moon 9:37 PM PDT (9/23) 10:54 AM PDT (9/23)
Length of Visible Light 12h 55m
Length of Day
12h 05m
Waning Gibbous, 80% of the Moon is Illuminated
Sep 23
Waning Gibbous
Sep 26
Last Quarter
Oct 4
New
Oct 11
First Quarter
Oct 18
Full

Hourly Weather History & Observations

Time (PDT) Temp. Dew Point Humidity Pressure Visibility Wind Dir Wind Speed Gust Speed Precip Events Conditions
12:51 AM 64.0 °F 51.1 °F 63% 29.82 in 10.0 mi NE 4.6 mph - N/A   Clear
1:51 AM 64.0 °F 50.0 °F 60% 29.81 in 10.0 mi East 3.5 mph - N/A   Clear
2:51 AM 62.1 °F 48.9 °F 62% 29.81 in 10.0 mi South 4.6 mph - N/A   Clear
3:51 AM 61.0 °F 51.1 °F 70% 29.80 in 10.0 mi Calm Calm - N/A   Clear
4:51 AM 60.1 °F 48.9 °F 67% 29.81 in 10.0 mi Calm Calm - N/A   Clear
5:51 AM 60.1 °F 50.0 °F 69% 29.81 in 10.0 mi Calm Calm - N/A   Clear
6:51 AM 59.0 °F 46.9 °F 64% 29.82 in 10.0 mi Calm Calm - N/A   Clear
7:51 AM 64.0 °F 45.0 °F 50% 29.84 in 10.0 mi Calm Calm - N/A   Clear
8:51 AM 73.0 °F 42.1 °F 33% 29.85 in 10.0 mi Calm Calm - N/A   Clear
9:51 AM 80.1 °F 42.1 °F 26% 29.86 in 10.0 mi Calm Calm - N/A   Clear
10:51 AM 86.0 °F 37.9 °F 18% 29.85 in 10.0 mi Variable 3.5 mph - N/A   Clear
11:51 AM 90.0 °F 32.0 °F 13% 29.85 in 10.0 mi Calm Calm - N/A   Clear
12:51 PM 90.0 °F 33.1 °F 13% 29.84 in 10.0 mi Variable 3.5 mph - N/A   Clear
1:51 PM 93.0 °F 32.0 °F 12% 29.82 in 10.0 mi South 9.2 mph - N/A   Clear
2:51 PM 93.9 °F 30.9 °F 11% 29.81 in 10.0 mi South 10.4 mph - N/A   Clear
3:51 PM 95.0 °F 30.0 °F 10% 29.79 in 10.0 mi South 12.7 mph - N/A   Clear
4:51 PM 93.0 °F 30.0 °F 11% 29.79 in 10.0 mi SSW 6.9 mph - N/A   Clear
5:51 PM 89.1 °F 35.1 °F 15% 29.80 in 10.0 mi NW 6.9 mph - N/A   Clear
6:51 PM 84.9 °F 33.1 °F 16% 29.82 in 10.0 mi WNW 8.1 mph - N/A   Clear
7:51 PM 81.0 °F 33.1 °F 18% 29.84 in 10.0 mi West 3.5 mph - N/A   Clear
8:51 PM 79.0 °F 34.0 °F 20% 29.86 in 10.0 mi Calm Calm - N/A   Clear
9:51 PM 77.0 °F 36.0 °F 23% 29.86 in 10.0 mi NW 3.5 mph - N/A   Clear
10:51 PM 73.0 °F 37.9 °F 28% 29.86 in 10.0 mi North 3.5 mph - N/A   Clear
11:51 PM 72.0 °F 37.9 °F 29% 29.86 in 10.0 mi Calm Calm - N/A   Clear